Content
SEND FEEDBACK

Daily
Averages
Monthly
Summary
Canada

MONTREAL, QUEBEC


Home > North America > Canada > Quebec
Elevation: 118 feet     Latitude: 45 28N     Longitude: 073 45W

WEATHER
 
SELECT A DAY
Number of Records: 202,545;   Date Range: 1/1/95 - 11/24/14
 
SHARE

PRINT THIS DATA

[ ← Previous Day ]
WEATHER ALMANAC - JULY 28, 2013
[ Next Day → ]
[ °C ]   °F
Weather ElementAverageHighLow
Temperature71.6 °F78.8 °F (1:00 pm)66.2 °F (9:00 pm)
Dewpoint64.9 °F68 °F (4:28 pm)60 °F (2:00 am)
Humidity79.5 %100 % (9:00 pm)58 % (2:00 am)
Barometer29.90 in29.94 in (11:00 pm)29.86 in (2:48 pm)
Wind Speed9.9 mph16.1 mph (2:48 pm)
Wind Gust25.3 mph (4:28 pm)
Weather ElementAverage
Visibility12.7 mi
Wind DirectionSSE (173.2 °)

Weather ElementTotal
Precipitation---
Cooling Degree Days7.5 (Base 65)
Growing Degree Days22.5 (Base 50)
Averaged from 38 records on July 28, 2013
WEATHER CONDITIONS BREAKOUT
WIND DIRECTION BREAKOUT
WEATHER BY HOUR - JULY 28, 2013
[ °C ]   °F
Local TimeTemperatureDewpointHumidityBarometerVisibilityWind DirectionWind SpeedGust SpeedPrecipitationEventsConditions
1:00 AM73.4 °F60.8 °F65 %29.92 in15.0 miESE (120°)5.8 mphOvercast
2:00 AM72.0 °F60.0 °F58 %29.92 in15.0 miSE (140°)6.9 mphOvercast
2:00 AM71.6 °F60.8 °F69 %29.92 in15.0 miSE (130°)8.1 mphOvercast
3:00 AM69.8 °F60.8 °F73 %29.91 in15.0 miSE (130°)4.6 mphMostly Cloudy
4:00 AM69.8 °F60.8 °F73 %29.91 in15.0 miESE (120°)4.6 mphMostly Cloudy
5:00 AM69.8 °F62.6 °F78 %29.91 in15.0 miESE (110°)5.8 mphOvercast
6:00 AM69.8 °F62.6 °F78 %29.92 in15.0 miESE (120°)6.9 mphOvercast
7:00 AM69.8 °F62.6 °F78 %29.92 in15.0 miESE (120°)6.9 mphOvercast
8:00 AM69.8 °F62.6 °F78 %29.92 in15.0 miESE (120°)10.4 mphOvercast
8:00 AM70.0 °F63.0 °F73 %29.92 in15.0 miSE (130°)10.4 mphOvercast
9:00 AM73.4 °F64.4 °F73 %29.91 in15.0 miSE (140°)12.7 mphOvercast
10:00 AM75.2 °F64.4 °F69 %29.90 in15.0 miSE (140°)12.7 mph19.6 mphOvercast
11:00 AM77.0 °F66.2 °F69 %29.89 in15.0 miSSE (150°)13.8 mphOvercast
12:00 PM77.0 °F66.2 °F69 %29.89 in15.0 miSE (140°)10.4 mphOvercast
1:00 PM78.8 °F66.2 °F65 %29.88 in15.0 miESE (120°)11.5 mphOvercast
1:25 PM77.0 °F64.4 °F65 %29.89 in15.0 miESE (120°)11.5 mphRainLight Rain Showers
2:00 PM75.0 °F66.0 °F68 %29.89 in12.0 miSE (140°)9.2 mphSnowLight Snow Showers
2:00 PM75.2 °F66.2 °F73 %29.89 in12.0 miSE (130°)10.4 mphRainLight Rain Showers
2:48 PM77.0 °F66.2 °F69 %29.86 in15.0 miESE (110°)16.1 mphOvercast
3:00 PM77.0 °F66.2 °F69 %29.86 in15.0 miSE (130°)16.1 mph21.9 mphOvercast
4:00 PM77.0 °F66.2 °F69 %29.86 in15.0 miSE (130°)16.1 mphMostly Cloudy
4:19 PM77.0 °F66.2 °F69 %29.86 in15.0 miESE (120°)11.5 mph19.6 mphThunderstormThunderstorm
4:28 PM75.2 °F68.0 °F78 %29.86 in1.0 miSSW (210°)16.1 mph25.3 mphRain-ThunderstormHeavy Thunderstorms and Rain
4:34 PM71.6 °F66.2 °F83 %29.87 in4.0 miSW (220°)8.1 mph25.3 mphRain-ThunderstormLight Thunderstorms and Rain
4:50 PM71.6 °F68.0 °F88 %29.87 in12.0 miSW (230°)15.0 mphRainLight Rain Showers
5:00 PM71.6 °F68.0 °F88 %29.88 in15.0 miWest (260°)13.8 mph19.6 mphRainLight Rain Showers
6:00 PM69.8 °F68.0 °F94 %29.88 in15.0 miSE (140°)4.6 mphRainLight Rain Showers
7:00 PM69.8 °F68.0 °F94 %29.90 in15.0 miSW (220°)11.5 mphOvercast
7:30 PM68.0 °F64.4 °F88 %29.89 in15.0 miWSW (250°)11.5 mphOvercast
8:00 PM68.0 °F66.2 °F94 %29.90 in15.0 miWNW (290°)6.9 mphOvercast
8:00 PM67.0 °F66.0 °F94 %29.90 in15.0 miWest (280°)6.9 mphPartly Cloudy
8:31 PM68.0 °F66.2 °F94 %29.90 in10.0 miWSW (250°)5.8 mphRainLight Rain Showers
9:00 PM66.2 °F66.2 °F100 %29.91 in6.0 miWSW (240°)8.1 mphRainLight Rain Showers
9:36 PM66.2 °F64.4 °F94 %29.93 in5.0 miWSW (240°)11.5 mphRainLight Rain
9:51 PM66.2 °F66.2 °F100 %29.93 in6.0 miWSW (240°)10.4 mphRainLight Rain
10:00 PM66.2 °F64.4 °F94 %29.93 in6.0 miWSW (240°)9.2 mphRainLight Rain
10:17 PM66.2 °F64.4 °F94 %29.93 in10.0 miWSW (250°)6.9 mphOvercast
11:00 PM66.2 °F64.4 °F94 %29.94 in10.0 miSSW (210°)6.9 mphOvercast
Hourly data recorded from CYUL, located miles away from Montreal, Quebec







STORIES FROM OUR PARTNERS